Location: Vienna
(48.2082°N, 16.3738°E)
Time: 00:58:18
(UTC+02:00)

ISS - Pass Details

Date: 18 July 2018
Orbit: 402 x 408 km, 51.6° (Epoch: 16 July)

Event Time Altitude Azimuth Distance (km) Brightness Sun altitude
Exits shadow 00:50:13 51° 290° (WNW) 519 -3.3 -20.7°
Maximum altitude 00:50:48 64° 343° (NNW) 454 -3.5 -20.7°
Drops below altitude 10° 00:54:05 10° 66° (ENE) 1,470 -0.7 -20.7°
Sets 00:56:11 0° 70° (ENE) 2,333 0.3 -20.7°
